#timestamp,LO_Frequency,Hit,StdDev 
1609502415.6,286047001.1,N
1609502435.4,286047000.1,N
1609502455.2,286047000.4,N
1609502475.1,286047000.0,N
1609502476.0,286047000.0,N
1609502495.8,286047000.0,N
1609502515.6,286047000.9,N
1609502535.5,286047000.6,N
1609502555.3,286047000.4,N
1609502575.2,286047000.6,N
1609502595.9,286047000.5,N
1609502615.7,286047000.5,N
1609502635.6,286047000.6,N
1609502655.4,286047001.0,N
1609502675.3,286047000.5,N
1609502695.1,286047000.0,N
1609502696.0,286047000.0,N
1609502715.8,286047001.0,N
1609502735.7,286047000.0,N
1609502755.5,286047000.4,N
1609502775.3,286047000.2,N
1609502795.2,286047000.5,N
1609502815.0,286046999.9,N
1609502815.9,286046999.9,N
1609502835.8,286047000.9,N
1609502855.6,286047000.3,N
1609502875.5,286047000.9,N
1609502895.3,286047000.4,N
1609502915.1,286047000.0,N
1609502935.9,286047000.0,N
1609502955.7,286047000.3,N
1609502975.5,286047000.5,N
1609502995.4,286047000.5,N
1609503015.2,286047000.3,N
1609503035.1,286046999.8,N
1609503036.0,286046999.8,N
1609503055.8,286047000.6,N
1609503075.6,286047000.4,N
1609503095.5,286047000.2,N
1609503115.3,286047000.5,N
1609503135.2,286047000.6,N
1609503155.9,286047000.6,N
1609503175.7,286047000.7,N
1609503195.6,286047000.8,N
1609503215.4,286047001.0,N
1609503235.2,286047000.2,N
1609503255.1,286047001.1,Y
1609503256.0,286047001.1,P
1609503275.8,286046998.1,P
1609503295.7,286047001.2,N
1609503315.5,286046998.2,N
1609503335.3,286046998.4,N
1609503355.2,286046998.1,N
1609503375.0,286046998.5,N
1609503375.9,286046998.5,N
1609503395.8,286046998.1,N
1609503415.6,286047001.2,N
1609503435.4,286046998.3,N
1609503455.3,286046998.3,N
1609503475.1,286046998.3,N
1609503495.9,286046998.5,N
1609503515.7,286046998.4,N
1609503535.5,286046998.2,N
1609503555.4,286046998.5,N
1609503575.2,286046998.1,N
1609503595.0,286046998.5,N
1609503596.0,286046998.5,N
1609503615.8,286046998.1,N
1609503635.6,286046998.4,N
1609503655.5,286046999.0,N
1609503675.3,286046998.7,N
1609503695.1,286046998.4,N
1609503715.9,286046998.9,N
1609503735.7,286046998.7,N
1609503755.6,286046999.3,N
1609503775.4,286046998.3,N
1609503795.2,286046998.2,N
1609503815.1,286046999.4,N
1609503816.0,286046999.4,N
1609503835.8,286046998.9,N
1609503855.7,286046999.3,N
1609503875.5,286046998.5,N
1609503895.3,286046998.7,N
1609503915.2,286046998.2,Y
1609503935.0,286047000.5,P
1609503935.9,286047000.5,N
1609503955.7,286047000.8,N
1609503975.6,286047001.0,N
1609503995.4,286046999.9,N
1609504015.3,286047000.1,N
1609504035.1,286046999.8,N
1609504055.8,286046999.7,N
1609504075.7,286047002.3,Y
1609504095.5,286047000.2,P
1609504115.4,286047000.0,N
1609504135.2,286047000.2,N
1609504155.0,286046999.9,N
1609504155.9,286046999.9,N
1609504175.8,286046999.8,N
1609504195.6,286046999.9,N
1609504215.5,286047001.0,Y
1609504235.3,286047000.5,P
1609504255.1,286047000.5,N
1609504275.9,286047000.0,N
1609504295.7,286047000.0,N
1609504315.5,286046999.7,N
1609504335.4,286047000.4,N
1609504355.2,286047000.3,N
1609504375.1,286047000.4,N
1609504376.0,286047000.4,N
1609504395.8,286047000.4,N
1609504415.6,286046999.8,N
1609504435.5,286047000.4,N
1609504455.3,286047000.6,N
1609504475.2,286047001.1,Y
1609504495.9,286047000.4,P
1609504515.7,286047000.4,P
1609504535.6,286047000.3,P
1609504555.4,286047000.2,N
1609504575.3,286046999.9,N
1609504595.1,286046999.7,N
1609504596.0,286046999.7,N
1609504615.8,286047000.0,N
1609504635.7,286047000.3,N
1609504655.5,286047000.1,N
1609504675.4,286047002.8,Y
1609504695.2,286047000.4,P
1609504715.0,286046999.9,N
1609504715.9,286046999.9,N
1609504735.8,286047000.0,N
1609504755.6,286047000.4,N
1609504775.4,286047000.8,Y
1609504795.3,286047000.3,P
1609504815.1,286047001.0,P
1609504835.9,286047000.0,N
1609504855.7,286047000.3,N
1609504875.5,286046999.9,N
1609504895.4,286047002.4,Y
1609504915.2,286047000.5,P
1609504935.1,286047001.0,P
1609504936.0,286047001.0,P
1609504955.8,286047000.0,N
1609504975.6,286047001.0,N
1609504995.5,286047000.7,N
1609505015.3,286047000.3,N
1609505035.2,286047001.1,N
1609505055.9,286047000.5,N
1609505075.7,286047000.6,N
1609505095.6,286047000.3,N
1609505115.4,286047000.6,N
1609505135.2,286046999.7,N
1609505155.1,286047000.2,N
1609505156.0,286047000.2,N
1609505175.8,286047000.2,N
1609505195.7,286047000.5,N
1609505215.5,286047001.0,N
1609505235.3,286047000.1,N
1609505255.2,286047000.9,N
1609505275.0,286047000.5,N
1609505275.9,286047000.5,N
1609505295.8,286047000.0,N
1609505315.6,286047000.4,N
1609505335.4,286047000.4,N
1609505355.3,286047000.1,N
1609505375.1,286047000.4,N
1609505395.9,286047000.3,N
1609505415.7,286047000.5,N
1609505435.5,286047000.2,N
1609505455.4,286047000.5,N
1609505475.2,286047000.0,N
1609505495.0,286047000.3,N
1609505496.0,286047000.3,N
1609505515.8,286047000.3,N
1609505535.6,286047000.5,N
1609505555.5,286047000.4,N
1609505575.3,286047000.7,N
1609505595.1,286047000.6,N
1609505615.9,286047000.0,N
1609505635.7,286047001.1,Y
1609505655.6,286047001.0,P
1609505675.4,286047000.9,N
1609505695.2,286047000.8,N
1609505715.1,286047000.8,Y
1609505716.0,286047000.8,P
1609505735.8,286046998.3,P
1609505755.7,286046998.2,N
1609505775.5,286046998.3,N
1609505795.3,286046998.6,N
1609505815.2,286046998.3,N
1609505835.0,286046999.3,N
1609505835.9,286046999.3,N
1609505855.8,286046998.8,N
1609505875.6,286046998.5,N
1609505895.4,286046998.8,N
1609505915.3,286046998.2,N
1609505935.1,286046998.5,N
1609505955.8,286047000.7,N
1609505975.7,286047000.8,N
1609505995.5,286047001.2,N
